Seattle Boeing, WA
on Thursday, January 24, 2013

Thursday
Previous Day Next Day
Daily Summary
 ActualAverage (KSEA)Record (KSEA)
Temperature
Mean Temperature °F 43°F  
Max Temperature 46°F 48°F 58°F (1995)
Min Temperature 37°F 37°F 10°F (1950)
Degree Days
Heating Degree Days 24 22  
Month to date heating degree days 556  
Since 1 July heating degree days 2494  
Cooling Degree Days 0 0  
Month to date cooling degree days 0  
Year to date cooling degree days 0  
Moisture
Dew Point 37°F   
Average Humidity 79    
Maximum Humidity 89    
Minimum Humidity 59    
Precipitation
Precipitation 0.16 in 0.16 in 1.36 in (1984)
Month to date precipitation 4.45  
Year to date precipitation 4.45  
Snow
Snow 0.00 in in 3.50 in (1972)
Month to date snowfall  
Since 1 July snowfall  
Snow Depth in   
Wind
Wind Speed 5 mph   
Max Wind Speed 8 mph   
Max Gust Speed mph   
Visibility 9 miles   
Events Rain   

Key: T is trace of precipitation, MM is missing value
Source: NWS Daily Summary
Time(PST)TemperatureDew PointHumidity Pressure Visibility Wind DirectionWind SpeedGust SpeedPrecipitationEvents Conditions
12:00 AM 44.6°F 39.2°F 81% 30.14 in 10.0 miles South 4.6 mph - N/A   Overcast
12:53 AM 44.1°F 37.9°F 79% 30.16 in 10.0 miles SSE 8.1 mph - N/A   Overcast
1:29 AM 42.8°F 37.4°F 81% 30.17 in 10.0 miles SSE 5.8 mph - N/A   Overcast
1:37 AM 44.6°F 37.4°F 76% 30.18 in 10.0 miles SSE 5.8 mph - N/A   Overcast
1:53 AM 44.1°F 37.9°F 79% 30.18 in 10.0 miles SSE 8.1 mph - N/A   Overcast
2:08 AM 42.8°F 37.4°F 81% 30.19 in 10.0 miles SE 8.1 mph - N/A   Overcast
2:53 AM 42.1°F 37.0°F 82% 30.19 in 10.0 miles SE 6.9 mph - N/A   Overcast
3:53 AM 42.1°F 37.0°F 82% 30.20 in 10.0 miles SE 6.9 mph - N/A   Overcast
4:53 AM 39.9°F 36.0°F 86% 30.19 in 10.0 miles SE 5.8 mph - N/A   Overcast
5:31 AM 42.8°F 35.6°F 76% 30.20 in 10.0 miles Calm Calm - N/A   Overcast
5:53 AM 39.9°F 36.0°F 86% 30.21 in 10.0 miles Calm Calm - N/A   Overcast
6:53 AM 39.0°F 35.1°F 86% 30.20 in 10.0 miles ESE 4.6 mph - N/A   Overcast
7:53 AM 37.0°F 33.1°F 86% 30.21 in 10.0 miles SE 3.5 mph - N/A   Mostly Cloudy
8:53 AM 39.0°F 34.0°F 82% 30.19 in 10.0 miles Calm Calm - N/A   Scattered Clouds
9:53 AM 42.1°F 34.0°F 73% 30.19 in 10.0 miles SE 3.5 mph - N/A   Scattered Clouds
10:53 AM 44.1°F 34.0°F 68% 30.17 in 10.0 miles SE 3.5 mph - N/A   Clear
11:53 AM 46.0°F 35.1°F 66% 30.15 in 10.0 miles Calm Calm - N/A   Overcast
12:53 PM 46.9°F 35.1°F 63% 30.12 in 10.0 miles SSE 5.8 mph - N/A   Scattered Clouds
1:53 PM 46.9°F 34.0°F 61% 30.11 in 10.0 miles SSE 5.8 mph - N/A   Overcast
2:53 PM 46.9°F 33.1°F 59% 30.09 in 10.0 miles SSE 3.5 mph - N/A   Overcast
3:53 PM 46.0°F 35.1°F 66% 30.09 in 10.0 miles WSW 6.9 mph - N/A   Overcast
4:53 PM 45.0°F 37.0°F 74% 30.10 in 9.0 miles Calm Calm - 0.01 in Rain Light Rain
5:53 PM 44.1°F 37.9°F 79% 30.10 in 9.0 miles Calm Calm - 0.06 in Rain Light Rain
6:53 PM 43.0°F 39.0°F 86% 30.09 in 6.0 miles SE 5.8 mph - 0.05 in Rain Light Rain
7:53 PM 43.0°F 39.9°F 89% 30.09 in 7.0 miles SE 4.6 mph - 0.01 in Rain Light Rain
8:53 PM 43.0°F 39.9°F 89% 30.08 in 10.0 miles Calm Calm - 0.01 in   Overcast
9:53 PM 43.0°F 39.9°F 89% 30.07 in 10.0 miles SE 3.5 mph - N/A   Overcast
10:53 PM 43.0°F 39.0°F 86% 30.06 in 10.0 miles SE 6.9 mph - 0.01 in   Overcast
11:27 PM 42.8°F 39.2°F 87% 30.07 in 4.0 miles SE 8.1 mph - 0.00 in Rain Light Rain
11:53 PM 43.0°F 39.9°F 89% 30.07 in 3.0 miles SSE 4.6 mph - 0.01 in Rain Light Rain
Moon Phase
Jan. 24 Jan. 26 Feb. 03 Feb. 10 Feb. 17
Sunrise:07:44 AM (PST) Moon Rise:03:03 PM (PST)
Sunset:04:58 PM (PST) Moon Set:05:48 AM (PST)

Copyright © 2014 The Weather Underground, Inc.